Location: Springe
(52.2103°N, 9.5560°E)
Time: 23:09:08
(UTC+00:00)

Daily predictions for brighter satellites

Satellite Brightness Start Highest point End
(mag) Time Altitude Azimuth Time Altitude Azimuth Time Altitude Azimuth
Cosmos 1486 Rocket 4.2 15:44:52 10° S 15:49:56 55° ESE 15:55:05 10° NNE
SL-16 R/B 2.8 15:44:13 10° NNE 15:50:17 51° E 15:56:17 10° S
YAOGAN 1 4.4 15:50:28 10° ENE 15:51:41 11° NE 15:52:52 10° NE
Okean 1-7 Rocket 4.1 15:47:39 10° N 15:51:47 37° ENE 15:55:50 10° SE
BREEZE M DEB (TANK) 4.2 15:53:14 10° S 15:54:38 13° SSE 15:55:48 10° SE
Cosmos 405 Rocket 3.3 15:53:02 10° NNW 15:56:12 50° W 15:59:18 10° S
NOSS 2-2 (C) 3.5 15:55:13 10° WSW 15:58:11 42° NW 16:01:06 10° NE
Cosmos 1461 3.1 15:54:35 10° SSW 15:58:20 48° SE 16:02:09 10° NE
Cosmos 1844 Rocket 4.1 15:56:03 10° NNW 15:59:54 18° NNE 16:03:45 10° ENE
Cosmos 2219 3.9 15:55:18 10° NNW 16:00:30 34° NE 16:05:42 10° ESE
ATLAS CENTAUR R/B 4.1 16:00:21 10° WNW 16:02:35 18° WSW 16:04:46 10° SSW
Cosmos 1980 Rocket 3.6 15:59:59 10° SE 16:03:48 19° E 16:07:34 10° ENE
CORIOLIS 4.2 15:58:47 10° SE 16:03:58 54° ENE 16:09:11 10° N
Cosmos 1634 Rocket 4.2 15:59:52 10° SSW 16:06:03 77° WNW 16:12:15 10° N
NOSS 3-2 (A) 3.4 16:01:29 10° SW 16:06:40 77° NW 16:13:04 10° NE
Cosmos 1953 Rocket 4.5 16:05:03 10° N 16:08:53 27° ENE 16:12:42 10° SE
Cosmos 2263 Rocket 2.4 16:03:40 10° NNW 16:09:10 48° NE 16:14:41 10° SE
NOSS 3-2 (C) 3.4 16:05:04 10° SSW 16:10:04 58° SE 16:15:56 11° NE
Cosmos 1867 3.9 16:05:33 10° NW 16:11:01 74° SW 16:16:26 10° SSE
IRIDIUM 106 4.4 16:07:25 10° N 16:12:36 59° E 16:17:44 10° SSE
ARIANE 5 R/B 2.7 16:09:09 10° SE 16:14:01 48° ENE 16:18:59 10° N
Meteor 1-5 Rocket 4.4 16:09:06 10° N 16:14:12 43° ENE 16:19:24 10° SE
Cosmos 2279 Rocket 4.0 16:08:31 10° S 16:14:45 90° E 16:21:03 10° N
IRS-1C 4.3 16:09:43 10° SE 16:14:49 49° ENE 16:19:57 10° N
Cosmos 1825 Rocket 3.7 16:12:45 10° N 16:16:59 48° ENE 16:21:09 10° SSE
Cosmos 1943 Rocket 4.3 16:18:08 10° NNW 16:19:23 11° N 16:20:40 10° N
Cosmos 1758 Rocket 4.3 16:17:04 10° NNW 16:21:17 54° W 16:25:26 10° S
Meteor 1-25 Rocket 4.2 16:15:44 10° N 16:21:34 71° ENE 16:27:19 10° SSE
Cosmos 1076 Rocket 4.0 16:20:03 10° N 16:24:06 38° ENE 16:28:08 10° SE
Cosmos 2098 Rocket 3.3 16:19:53 10° S 16:24:21 86° WNW 16:29:35 10° N
Cosmos 1655 Rocket 4.2 16:18:32 10° N 16:24:34 48° ENE 16:30:33 10° SE
Lacrosse 4 Rocket 3.3 16:21:51 10° W 16:24:48 19° NNW 16:27:45 10° NNE
SAR-Lupe-4 3.8 16:23:12 10° SE 16:26:37 45° ENE 16:30:02 10° N
Cosmos 1782 3.1 16:23:47 10° SSW 16:27:20 58° WNW 16:30:53 10° N
Cosmos 1933 3.5 16:23:55 10° SSE 16:27:35 46° E 16:31:17 10° NNE
Meteor 1-28 Rocket 2.8 16:25:50 10° NNE 16:29:12 77° ESE 16:32:32 10° S
Cosmos 2227 Rocket 2.3 16:23:41 10° NNW 16:29:23 86° WSW 16:35:02 10° SSE
Cosmos 44 Rocket 4.4 16:25:44 10° NW 16:30:08 28° NNE 16:33:16 16° ENE
Cosmos 2369 Rocket 4.2 16:30:01 10° WNW 16:33:54 18° NNW 16:37:49 10° NNE
SPOT 1/Viking Rocket 3.9 16:33:04 10° SE 16:37:53 40° ENE 16:42:44 10° N
SAR-Lupe-1 4.1 16:35:42 10° SSE 16:39:14 55° ENE 16:42:48 10° N
SJ-12 3.7 16:35:44 10° SSE 16:39:27 61° ENE 16:43:13 10° N
CENTAUR R/B 3.5 16:36:24 10° W 16:42:24 42° NNW 16:48:30 15° NE
Cosmos 1697 Rocket 2.7 16:37:06 10° SSW 16:42:40 68° ESE 16:47:33 14° NE
CZ-2D R/B 2.6 16:41:42 10° SSE 16:44:49 69° ENE 16:47:58 10° N
Cosmos 1538 Rocket 4.0 16:40:05 10° NNW 16:45:22 69° ENE 16:50:41 10° SE
NOSS 2-3 (C) 3.9 16:43:26 10° S 16:46:33 32° SE 16:47:48 25° E
NOSS 3 (A) 4.4 16:44:28 10° NW 16:46:45 69° SW 16:49:41 10° SE
Cosmos 2058 Rocket 3.9 16:43:29 10° SSE 16:47:19 29° E 16:49:15 21° NE
Cosmos 2266 Rocket 4.2 16:42:12 10° NNW 16:48:20 73° W 16:54:20 10° S
Cosmos 2278 Rocket 4.3 16:47:02 10° NNW 16:48:46 11° N 16:50:30 10° NNE
Cosmos 1606 Rocket 3.5 16:49:09 10° S 16:53:34 80° E 16:58:02 10° NNE
Cosmos 1503 Rocket 4.2 16:51:00 10° SSW 16:56:12 71° WNW 17:01:11 11° NNE
Lacrosse 5 rocket 1.8 16:54:12 10° WNW 16:57:42 37° N 16:58:50 29° NE
UNK 3.7 16:53:25 10° NNE 16:58:03 90° SE 17:02:36 10° SSW
CZ-4C R/B 4.2 16:52:47 10° NW 16:59:24 44° WSW 17:07:23 10° S
Thor Agena Rocket 4.4 16:56:21 10° S 17:01:24 52° W 17:06:26 10° NNW
IRS-P3 4.0 16:58:39 10° SSE 17:03:58 84° ENE 17:09:19 10° NNW
NOSS 2-3 (D) 3.3 17:02:14 10° SSW 17:05:50 57° SE 17:07:03 37° ENE
NOSS 2-3 (E) 3.2 17:02:52 10° SSW 17:06:28 62° SE 17:07:43 38° ENE
Cosmos 1354 Rocket 4.1 17:01:56 10° SSW 17:07:12 79° WNW 17:11:39 15° NNE
Resurs 1-3 3.8 17:03:59 10° SE 17:08:03 43° ENE 17:12:07 10° N
CZ-4 R/B 4.2 17:04:45 10° SSE 17:08:39 64° ENE 17:12:35 10° N
NOSS 2-2 (D) 4.4 17:06:40 10° W 17:09:13 23° NNW 17:10:10 20° N
Cosmos-2242 3.3 17:06:25 10° SSE 17:10:24 41° E 17:11:24 35° ENE
MOS 1 Rocket 3.6 17:05:57 10° SSE 17:10:58 82° WSW 17:16:17 10° NNW
USA 238 DEB 3.7 17:05:22 10° SSW 17:11:18 54° SE 17:14:48 27° ENE
Cosmos 1844 4.3 17:06:18 10° NNW 17:11:23 34° NE 17:12:43 30° ENE
USA 238 3.7 17:05:28 10° SSW 17:11:25 54° SE 17:14:54 27° ENE
Meteor 2-20 4.4 17:06:01 10° S 17:12:08 68° E 17:18:13 10° NNE
Spot 4 Rocket 4.0 17:09:43 10° SE 17:14:42 57° ENE 17:19:44 10° N
SJ-7 4.4 17:14:36 44° ENE 17:14:45 45° ENE 17:18:22 10° N
Cosmos 1898 Rocket 3.8 17:10:04 10° S 17:14:54 43° ESE 17:16:31 33° ENE
Gbstr 26 Del rocket 2.9 17:11:34 10° WSW 17:15:31 58° SSE 17:16:29 43° ESE
USA 215 3.5 17:12:07 26° ENE 17:15:52 59° N 17:22:18 10° WNW
Cosmos 1726 Rocket 3.7 17:11:29 10° SSW 17:16:07 84° W 17:20:37 11° N
Cosmos 1553 Rocket 4.3 17:10:54 10° SSE 17:16:40 43° E 17:22:35 10° NNE
Cosmos 372 Rocket 4.0 17:12:32 10° S 17:17:32 54° ESE 17:19:40 32° NE
Cosmos 2082 3.6 17:12:12 10° NNW 17:17:57 77° ENE 17:23:42 10° SE
Cosmos 2112 Rocket 4.3 17:13:03 10° NNW 17:17:59 41° NE 17:19:27 33° E
SMAP 4.5 17:15:38 10° SSW 17:20:01 40° W 17:24:26 10° NNW
Cosmos 1805 2.7 17:16:44 10° N 17:20:06 67° ENE 17:23:27 10° SSE
IRAS Rocket 4.2 17:15:40 10° SE 17:21:00 56° ENE 17:26:21 10° N
GEOS 3 Rocket 3.6 17:19:09 29° NE 17:22:00 79° SE 17:27:23 10° SW
YAOGAN 1 2.4 17:22:30 10° SSE 17:26:43 65° ENE 17:30:57 10° N
Cosmos 923 Rocket 3.8 17:21:41 10° NNW 17:26:54 69° ENE 17:32:04 10° SE
Cosmos 2227 4.4 17:23:24 10° NNW 17:28:54 49° NE 17:30:31 38° E
Cosmos 1745 Rocket 4.2 17:24:22 10° N 17:30:15 42° ENE 17:34:25 18° SE
Cosmos 1937 Rocket 3.7 17:25:36 10° S 17:30:27 43° ESE 17:30:51 42° E
SL-16 R/B 4.0 17:28:06 10° SSE 17:29:26 15° SE 17:29:26 15° SE
Meteor 2-20 Rocket 4.3 17:27:18 10° S 17:33:26 70° E 17:39:18 10° NNE
SL-16 R/B 3.8 17:28:03 10° N 17:33:45 39° WNW 17:39:23 10° SW
Cosmos 990 Rocket 4.5 17:29:36 10° SW 17:34:40 57° WNW 17:38:14 20° NNE
CZ-2D R/B 3.3 17:30:38 10° SSE 17:34:49 89° E 17:38:57 10° NNW
Cosmos 1461 4.1 17:31:41 10° W 17:35:15 32° NW 17:36:23 27° N
Cosmos 1244 Rocket 4.4 17:30:00 10° N 17:36:20 84° E 17:42:31 10° S
SKYMED 2 3.4 17:35:14 48° NE 17:36:21 71° ESE 17:40:41 10° S
COSMOS 2455 3.7 17:33:57 10° S 17:38:36 31° ESE 17:38:36 31° ESE
Meteor 2-2 Rocket 4.1 17:33:44 10° S 17:39:19 69° E 17:42:46 24° NNE
Okean 1 4.0 17:36:06 10° S 17:38:21 35° S 17:38:21 35° S
Cosmos 494 Rocket 4.1 17:37:32 10° NNW 17:42:41 52° ENE 17:42:50 52° ENE
Cosmos 2219 3.7 17:39:20 10° NW 17:45:00 61° WSW 17:50:39 10° SSE
Cosmos 1844 Rocket 2.7 17:39:29 10° NNW 17:45:05 55° NE 17:45:49 51° E
Cosmos 1980 Rocket 2.1 17:41:23 10° SSW 17:47:03 88° WNW 17:49:21 38° NNE
SL-08 R/B 4.4 17:41:09 10° N 17:47:31 85° E 17:53:52 10° S
Aureole 1 Rocket 3.5 17:44:08 10° SSW 17:48:55 82° WNW 17:51:47 31° NNE
Meteor 1-26 Rocket 4.0 17:44:32 10° S 17:49:56 84° E 17:52:49 29° NNE
PSLV R/B 3.3 17:49:59 52° S 17:50:55 86° WSW 17:55:01 10° NNW
Cosmos 1386 Rocket 4.3 17:45:17 10° N 17:51:23 71° ENE 17:57:33 10° SSE
Cosmos 2263 Rocket 3.6 17:47:47 10° NW 17:53:01 38° WSW 17:58:13 10° S
ARIANE 5 R/B 4.4 17:48:48 10° SSW 17:53:16 30° W 17:57:48 10° NNW
SL-19 R/B 4.2 17:48:21 10° SSE 17:53:49 86° WSW 17:59:38 10° NNW
COSMO-SKYMED 1 3.3 17:59:08 39° S 17:59:08 39° S 18:01:48 10° S
NOSS 3-2 (A) 4.5 17:53:14 10° W 17:58:25 34° NNW 18:00:32 28° NNE
Cosmos 1680 Rocket 3.4 17:53:18 10° NNW 17:58:35 89° ENE 18:00:24 42° SSE
NOSS 3-2 (C) 4.1 17:55:54 10° W 18:01:07 45° NNW 18:03:20 33° NNE
NOAA 6 3.9 17:58:04 10° SSE 18:03:10 86° WSW 18:08:19 10° NNW
Cosmos 2369 3.6 17:58:59 10° SSW 18:04:42 77° ESE 18:05:20 68° ENE
Cosmos 967 Rocket 4.4 17:59:00 10° SSW 18:05:15 61° ESE 18:05:43 59° ESE
Cosmos 1943 Rocket 4.2 18:02:31 10° NNW 18:04:11 14° N 18:04:11 14° N
Resurs 01 Rocket 3.9 18:11:53 14° N 18:11:53 14° N 18:12:31 10° N
Cosmos 44 Rocket 3.4 18:07:04 10° NW 18:11:53 78° NNW 18:11:53 78° NNW
Cosmos 2369 Rocket 4.5 18:18:36 10° NNW 18:20:25 11° N 18:20:47 11° N
Cosmos 2058 Rocket 4.4 18:20:54 10° SW 18:25:04 38° WNW 18:26:26 30° NNW
USA 281 4.2 18:28:12 32° NNE 18:28:12 32° NNE 18:32:18 10° NNW
Cosmos 1697 Rocket 4.2 18:22:09 10° WSW 18:27:06 31° NW 18:29:16 24° N
Cosmos 2333 Rocket 4.4 18:29:03 10° S 18:29:35 13° S 18:29:35 13° S
CENTAUR R/B 3.8 18:28:22 10° WNW 18:34:51 36° N 18:35:36 36° NNE
Lacrosse 5 rocket 3.7 18:31:28 10° WNW 18:32:26 17° WNW 18:32:26 17° WNW
Cosmos 2278 Rocket 4.3 18:31:15 10° NNW 18:32:43 15° N 18:32:43 15° N
Cosmos 1844 4.5 18:50:20 10° NW 18:54:37 48° WNW 18:54:37 48° WNW
USA 215 3.4 18:59:28 67° NW 18:59:28 67° NW 19:05:11 10° WNW
USA 238 DEB 4.1 18:56:08 10° WSW 19:02:15 53° NNW 19:02:15 53° NNW
USA 238 4.1 18:56:14 10° WSW 19:02:21 53° NNW 19:02:21 53° NNW
SL-16 R/B 4.3 19:09:57 10° SSW 19:11:20 18° SW 19:11:20 18° SW
COSMOS 2455 4.3 19:18:45 10° SW 19:21:46 31° WSW 19:21:46 31° WSW
Cosmos 1844 Rocket 4.4 19:23:44 10° NW 19:27:31 30° W 19:27:31 30° W
Cosmos 1980 Rocket 4.1 19:27:14 10° W 19:31:07 24° NW 19:31:07 24° NW
